Temp
-11 -11 -12 -12 -11 -11 -11 -11 -11 -12 -12 -12 -12 -12 -12 -12 -12 -12 -12 -12 -12 -13 -12 -13 -13 -13 -13 -13 -12 -13 -13 -13 -13 -13 -13 -12 -12 -12 -13 -13 -13 -13 -12
-11 -11 -11 -11 -11 -12 -12 -12 -12 -12 -12 -12 -12 -12 -12 -13 -13 -12 -12 -12 -13 -13 -13 -13 -13 -11 -12 -12 -12 -13 -13 -13 -12 -12 -12 -13 -12 -12 -12 -13 -13 -13 -13
-11 -11 -11 -11 -11 -11 -11 -12 -12 -12 -12 -12 -12 -12 -12 -12 -12 -12 -13 -13 -13 -13 -13 -13 -13 -12 -12 -13 -13 -13 -13 -13 -14 -13 -12 -12 -12 -12 -12 -12 -13 -13 -13
-11 -11 -11 -12 -12 -12 -12 -12 -12 -12 -12 -12 -12 -12 -12 -12 -12 -12 -12 -12 -13 -13 -13 -13 -13 -12 -12 -12 -12 -13 -13 -13 -13 -13 -13 -12 -13 -14 -13 -12 -12 -12 -13
-12 -12 -12 -12 -12 -12 -12 -12 -12 -12 -12 -12 -12 -13 -13 -12 -12 -12 -13 -13 -12 -13 -14 -13 -13 -13 -12 -13 -12 -12 -12 -12 -13 -12 -12 -13 -12 -13 -13 -12 -12 -12 -12
-12 -12 -12 -12 -13 -12 -12 -12 -12 -12 -12 -12 -12 -12 -12 -12 -12 -12 -12 -13 -13 -13 -13 -14 -14 -13 -13 -13 -13 -13 -13 -12 -13 -13 -13 -13 -13 -13 -12 -12 -12 -12 -12
-12 -13 -13 -13 -13 -13 -13 -13 -13 -13 -12 -12 -12 -12 -13 -13 -14 -14 -14 -14 -14 -15 -14 -14 -15 -14 -14 -13 -13 -13 -13 -13 -13 -13 -13 -12 -13 -13 -12 -13 -12 -12 -12
-13 -13 -13 -13 -13 -13 -13 -13 -13 -13 -13 -13 -13 -13 -14 -15 -15 -15 -15 -16 -16 -16 -15 -15 -15 -16 -15 -14 -14 -14 -13 -13 -12 -13 -13 -13 -13 -13 -13 -13 -13 -11 -12
-13 -14 -14 -14 -14 -14 -14 -14 -14 -14 -14 -15 -15 -15 -15 -16 -16 -16 -16 -17 -17 -17 -17 -17 -17 -17 -17 -16 -15 -15 -14 -14 -13 -13 -13 -13 -13 -12 -12 -13 -13 -12 -12
-14 -14 -14 -14 -14 -14 -14 -14 -15 -15 -15 -16 -16 -16 -16 -17 -17 -17 -17 -18 -18 -18 -18 -17 -17 -17 -17 -17 -16 -15 -15 -14 -14 -13 -13 -13 -13 -13 -12 -13 -13 -12 -12
-15 -15 -15 -15 -15 -15 -15 -15 -16 -16 -17 -17 -17 -17 -18 -18 -18 -18 -18 -19 -19 -19 -19 -18 -18 -18 -18 -17 -17 -16 -16 -15 -15 -14 -13 -13 -13 -13 -13 -13 -13 -13 -12
-15 -15 -15 -15 -15 -15 -16 -17 -17 -17 -17 -17 -17 -18 -19 -19 -20 -20 -19 -19 -19 -19 -19 -19 -19 -18 -18 -18 -17 -17 -17 -16 -16 -16 -15 -14 -14 -14 -14 -13 -13 -13 -13
-15 -15 -16 -16 -16 -17 -17 -17 -17 -17 -18 -18 -19 -20 -21 -21 -20 -20 -20 -19 -20 -20 -20 -19 -19 -19 -19 -19 -18 -18 -18 -17 -16 -16 -16 -15 -15 -14 -13 -13 -13 -13 -13
-16 -17 -17 -17 -17 -18 -17 -18 -18 -18 -19 -20 -21 -22 -22 -21 -21 -20 -20 -20 -20 -20 -20 -20 -19 -19 -19 -19 -19 -19 -18 -17 -17 -16 -16 -16 -15 -14 -14 -14 -13 -13 -13
-18 -18 -18 -18 -18 -18 -18 -18 -19 -20 -21 -22 -22 -22 -22 -22 -21 -21 -20 -20 -20 -20 -20 -20 -19 -19 -19 -19 -20 -19 -18 -18 -17 -17 -16 -16 -16 -16 -15 -14 -14 -14 -13
-19 -19 -18 -18 -18 -18 -19 -19 -20 -21 -22 -22 -22 -22 -22 -22 -21 -21 -20 -20 -20 -20 -20 -20 -19 -19 -19 -19 -19 -19 -19 -18 -18 -17 -17 -16 -16 -17 -16 -15 -14 -14 -14
-19 -19 -19 -19 -19 -19 -19 -20 -21 -22 -22 -22 -22 -22 -22 -22 -22 -21 -22 -21 -21 -20 -20 -20 -20 -20 -19 -20 -20 -19 -19 -18 -18 -18 -18 -18 -18 -18 -18 -17 -16 -15 -15
-19 -19 -19 -20 -19 -19 -20 -21 -22 -22 -22 -22 -22 -22 -22 -23 -23 -22 -23 -22 -22 -20 -20 -20 -20 -20 -20 -20 -20 -19 -19 -19 -19 -18 -18 -18 -17 -18 -18 -18 -17 -17 -17
-20 -20 -20 -20 -19 -20 -21 -22 -22 -22 -22 -23 -23 -23 -23 -23 -23 -23 -22 -22 -22 -22 -21 -20 -20 -20 -20 -20 -20 -20 -19 -19 -18 -18 -18 -18 -18 -18 -18 -18 -18 -18 -18
-20 -20 -20 -20 -21 -22 -22 -23 -23 -23 -24 -24 -24 -24 -24 -23 -23 -23 -23 -22 -22 -22 -21 -21 -20 -20 -20 -21 -20 -19 -19 -18 -18 -18 -18 -18 -18 -18 -19 -19 -18 -18 -18
-21 -21 -21 -22 -23 -23 -23 -24 -24 -25 -25 -25 -25 -24 -24 -23 -23 -23 -23 -23 -23 -22 -22 -22 -21 -21 -21 -20 -19 -19 -19 -19 -19 -18 -18 -18 -18 -19 -19 -20 -20 -19 -19
-22 -22 -22 -22 -23 -23 -24 -25 -25 -25 -25 -25 -25 -25 -25 -24 -24 -24 -23 -23 -23 -23 -23 -23 -22 -22 -22 -21 -20 -20 -19 -19 -19 -19 -19 -19 -19 -20 -20 -20 -20 -19 -19
-22 -22 -23 -23 -23 -24 -25 -25 -26 -26 -26 -25 -25 -25 -25 -25 -25 -25 -25 -24 -24 -24 -24 -24 -23 -23 -23 -23 -22 -21 -21 -20 -20 -20 -20 -20 -20 -20 -19 -20 -20 -20 -20
-23 -23 -23 -23 -24 -24 -25 -25 -26 -26 -26 -25 -25 -25 -25 -25 -25 -25 -25 -25 -25 -24 -24 -24 -24 -24 -23 -23 -23 -22 -22 -22 -22 -21 -21 -21 -21 -21 -20 -20 -20 -20 -20
-23 -24 -24 -24 -24 -25 -25 -25 -26 -26 -26 -25 -25 -25 -24 -24 -25 -25 -25 -25 -24 -24 -24 -24 -24 -24 -24 -23 -23 -23 -23 -23 -23 -23 -23 -23 -22 -22 -22 -22 -21 -21 -21
-24 -24 -24 -24 -25 -25 -25 -25 -26 -26 -26 -25 -25 -25 -24 -24 -24 -24 -24 -24 -24 -24 -24 -24 -24 -24 -24 -24 -24 -23 -23 -23 -23 -23 -23 -23 -23 -23 -23 -22 -22 -22 -22
Height
5813 5814 5813 5812 5811 5811 5811 5810 5809 5808 5808 5808 5807 5807 5806 5806 5806 5804 5803 5801 5801 5800 5801 5802 5802 5804 5803 5802 5802 5799 5799 5800 5799 5799 5801 5802 5804 5805 5807 5809 5810 5812 5814
5805 5805 5805 5805 5804 5803 5802 5802 5801 5800 5800 5799 5799 5799 5797 5796 5796 5796 5794 5793 5792 5791 5791 5791 5792 5789 5791 5788 5792 5788 5789 5788 5790 5792 5793 5794 5796 5799 5800 5802 5805 5807 5809
5798 5798 5797 5797 5796 5795 5794 5793 5792 5791 5790 5790 5790 5789 5788 5787 5786 5784 5783 5782 5782 5782 5780 5780 5782 5782 5779 5777 5784 5780 5781 5783 5785 5784 5786 5787 5787 5791 5796 5798 5799 5801 5804
5790 5791 5790 5789 5788 5787 5786 5784 5783 5781 5780 5779 5778 5777 5777 5777 5775 5774 5772 5770 5768 5769 5770 5769 5769 5769 5770 5773 5774 5773 5773 5775 5776 5776 5775 5778 5781 5787 5791 5792 5795 5797 5798
5782 5782 5781 5780 5779 5777 5776 5775 5773 5772 5770 5768 5767 5765 5764 5763 5762 5761 5759 5757 5756 5754 5755 5756 5756 5758 5758 5759 5762 5762 5762 5764 5767 5768 5765 5771 5776 5781 5782 5783 5786 5789 5791
5773 5772 5771 5770 5768 5767 5765 5763 5761 5760 5759 5757 5755 5752 5749 5747 5745 5744 5743 5740 5739 5739 5740 5740 5741 5744 5745 5745 5749 5751 5753 5753 5756 5760 5763 5764 5766 5771 5771 5774 5776 5779 5782
5764 5763 5761 5760 5758 5756 5754 5752 5749 5747 5744 5744 5742 5739 5735 5732 5728 5724 5725 5723 5720 5719 5720 5721 5724 5729 5731 5732 5735 5738 5740 5742 5747 5753 5753 5756 5760 5763 5764 5769 5767 5770 5773
5754 5753 5751 5748 5746 5744 5741 5739 5736 5733 5729 5726 5724 5721 5719 5715 5710 5706 5706 5705 5703 5702 5701 5700 5704 5709 5713 5716 5719 5723 5727 5731 5736 5742 5745 5746 5749 5753 5755 5757 5760 5764 5764
5743 5742 5739 5736 5733 5730 5727 5723 5720 5717 5713 5707 5704 5701 5699 5698 5694 5690 5687 5685 5684 5684 5683 5681 5683 5689 5695 5699 5705 5708 5714 5718 5723 5729 5732 5735 5738 5742 5745 5749 5752 5754 5756
5732 5729 5726 5723 5720 5716 5713 5709 5704 5700 5696 5692 5684 5681 5679 5676 5674 5672 5666 5665 5665 5665 5666 5664 5665 5669 5676 5680 5689 5692 5699 5704 5708 5714 5719 5723 5727 5732 5735 5740 5743 5745 5747
5720 5718 5714 5711 5707 5702 5699 5694 5688 5683 5678 5674 5669 5663 5656 5653 5650 5650 5651 5647 5647 5648 5649 5647 5648 5653 5657 5663 5670 5677 5682 5687 5692 5699 5705 5711 5715 5719 5723 5726 5732 5735 5738
5707 5704 5700 5696 5691 5687 5682 5677 5672 5667 5660 5654 5648 5642 5637 5633 5630 5628 5631 5633 5630 5630 5633 5631 5632 5636 5640 5646 5651 5658 5666 5671 5677 5683 5689 5695 5700 5705 5710 5714 5719 5722 5725
5693 5689 5685 5681 5677 5672 5667 5661 5654 5648 5640 5633 5625 5619 5615 5614 5612 5611 5612 5614 5613 5614 5613 5613 5618 5620 5625 5630 5636 5640 5647 5654 5663 5668 5673 5679 5684 5690 5694 5700 5704 5707 5711
5679 5676 5672 5666 5661 5656 5652 5644 5637 5630 5623 5613 5606 5601 5598 5597 5596 5596 5596 5596 5595 5595 5596 5597 5601 5606 5610 5616 5620 5625 5629 5639 5647 5652 5657 5663 5669 5674 5678 5683 5688 5693 5698
5667 5663 5658 5653 5647 5642 5637 5629 5621 5612 5603 5596 5591 5586 5583 5582 5582 5582 5581 5578 5577 5578 5580 5582 5587 5591 5595 5600 5606 5610 5615 5622 5629 5637 5641 5646 5651 5656 5661 5666 5671 5676 5681
5654 5650 5645 5638 5633 5628 5622 5615 5604 5596 5589 5585 5578 5573 5570 5569 5569 5567 5565 5563 5562 5563 5566 5569 5573 5576 5582 5587 5592 5597 5602 5606 5613 5620 5625 5629 5634 5638 5643 5649 5653 5659 5664
5642 5637 5632 5626 5619 5613 5608 5598 5589 5583 5579 5573 5567 5564 5561 5558 5556 5555 5552 5550 5548 5550 5554 5557 5561 5567 5571 5576 5581 5585 5590 5595 5599 5605 5611 5615 5620 5624 5627 5632 5636 5640 5646
5629 5625 5619 5612 5606 5601 5593 5585 5579 5573 5567 5561 5558 5555 5553 5550 5548 5546 5545 5543 5541 5540 5543 5547 5551 5557 5563 5567 5571 5575 5579 5583 5589 5594 5598 5602 5606 5609 5613 5617 5620 5623 5627
5616 5612 5607 5600 5594 5589 5582 5576 5570 5563 5556 5553 5552 5549 5547 5545 5542 5540 5539 5539 5537 5535 5535 5539 5543 5549 5555 5560 5563 5568 5571 5575 5579 5583 5586 5590 5594 5596 5598 5600 5605 5608 5610
5605 5601 5595 5590 5584 5578 5573 5568 5559 5554 5550 5549 5547 5545 5543 5541 5538 5536 5535 5534 5533 5531 5531 5533 5536 5541 5547 5553 5558 5561 5563 5567 5570 5574 5578 5580 5581 5581 5583 5586 5590 5593 5595
5595 5589 5585 5578 5573 5570 5566 5559 5551 5548 5547 5546 5544 5542 5540 5537 5535 5533 5531 5530 5528 5528 5529 5531 5534 5538 5542 5546 5550 5552 5555 5558 5561 5563 5565 5568 5568 5567 5570 5574 5576 5579 5582
5585 5579 5574 5569 5565 5563 5559 5552 5547 5545 5545 5543 5541 5539 5537 5535 5533 5531 5530 5528 5529 5527 5527 5529 5531 5535 5539 5541 5543 5544 5546 5548 5550 5552 5554 5556 5557 5558 5561 5562 5565 5566 5571
5574 5570 5566 5560 5559 5557 5554 5548 5543 5543 5542 5540 5538 5537 5535 5533 5532 5530 5529 5527 5527 5527 5528 5529 5530 5532 5535 5537 5538 5537 5538 5539 5540 5542 5543 5545 5546 5547 5548 5549 5552 5554 5557
5565 5562 5557 5553 5552 5551 5547 5543 5540 5540 5539 5536 5535 5534 5532 5531 5530 5529 5528 5529 5529 5530 5529 5529 5530 5531 5533 5533 5533 5534 5534 5534 5534 5534 5535 5535 5536 5536 5537 5538 5539 5541 5542
5556 5552 5548 5546 5546 5544 5541 5538 5536 5536 5535 5533 5531 5530 5528 5527 5526 5526 5526 5527 5527 5526 5527 5527 5527 5528 5528 5528 5528 5529 5530 5530 5530 5530 5530 5528 5525 5526 5527 5528 5528 5529 5530
5545 5543 5540 5540 5539 5537 5536 5534 5533 5533 5531 5530 5528 5525 5524 5523 5522 5522 5523 5523 5523 5523 5523 5523 5523 5524 5524 5523 5523 5522 5524 5524 5524 5523 5522 5523 5522 5519 5516 5516 5517 5516 5515
Wind_Speed
37 36 33 32 32 32 33 33 34 35 36 37 38 39 39 38 39 44 48 50 50 48 46 45 42 41 44 45 32 34 46 47 48 41 37 34 32 28 26 24 21 19 16
34 35 34 34 34 33 32 32 33 34 36 37 39 40 42 44 43 44 47 50 49 50 50 47 48 39 51 54 49 25 29 27 49 50 43 38 35 32 29 27 26 23 22
34 35 34 33 33 34 35 35 36 37 38 40 41 44 45 46 49 50 52 53 52 51 51 51 49 50 53 43 40 33 31 36 39 38 47 41 39 34 31 29 28 27 25
32 33 34 35 36 36 37 38 39 40 41 42 43 45 46 48 52 54 58 61 60 57 55 55 52 53 54 50 48 46 40 43 40 41 49 51 39 32 30 31 30 29 29
35 35 37 38 39 39 39 40 41 42 44 46 48 50 52 54 57 60 62 64 68 66 62 60 56 55 57 56 50 48 45 43 43 42 25 33 33 23 33 35 34 33 32
37 39 40 40 41 43 44 45 47 49 51 52 55 57 61 64 65 67 72 77 73 74 73 64 62 58 58 60 53 52 48 47 42 36 31 32 23 28 13 39 39 37 37
40 41 42 43 44 45 47 50 53 55 57 57 59 63 65 67 69 73 75 78 78 68 70 75 64 61 61 60 57 56 52 49 45 39 37 29 28 30 32 24 22 37 39
42 43 44 46 47 49 52 55 56 59 62 65 66 68 72 74 73 70 68 71 70 68 71 72 72 58 62 61 59 59 57 53 48 46 41 36 30 29 31 31 20 22 27
45 46 47 49 52 54 57 59 61 63 65 69 71 71 70 67 63 66 67 66 69 70 72 71 65 60 54 57 59 59 58 55 53 50 44 41 36 35 35 33 31 27 24
48 49 51 53 55 57 59 62 64 66 67 67 68 67 65 64 63 66 63 60 59 61 61 62 61 59 57 56 54 56 58 58 56 52 49 45 42 39 36 40 37 33 31
50 52 53 55 58 59 62 64 66 66 67 69 71 68 65 66 65 62 56 58 52 52 54 56 57 55 55 55 51 52 54 53 52 51 51 47 46 42 42 45 42 37 37
54 55 58 60 61 61 64 65 66 69 71 72 72 70 67 62 60 56 50 51 49 53 52 53 55 54 51 52 51 47 49 53 54 53 51 50 48 48 45 45 46 43 44
55 58 60 61 61 61 62 65 67 69 69 70 70 64 55 55 52 48 42 46 47 48 53 54 54 56 52 48 49 50 48 48 50 53 51 51 50 51 51 48 48 48 48
54 55 56 56 57 59 64 65 65 67 68 64 57 53 53 50 45 43 47 50 49 49 51 52 54 54 54 53 47 49 51 46 43 44 47 47 49 52 54 53 54 55 54
45 48 52 57 60 61 64 64 67 66 58 51 49 49 48 50 46 47 48 47 46 46 47 48 49 52 53 50 48 44 47 46 44 43 44 45 45 46 48 57 55 58 60
46 52 56 57 58 60 63 67 66 57 48 50 48 45 43 44 46 45 46 44 43 43 44 44 45 46 45 44 44 47 46 48 46 45 47 47 48 49 52 52 59 59 62
49 54 56 55 56 60 65 69 60 49 49 47 43 42 39 38 38 39 38 40 35 33 34 38 40 40 40 41 45 48 48 41 44 45 47 47 49 52 53 55 61 63 63
51 53 50 52 57 64 70 63 49 50 46 41 37 34 32 33 32 30 26 21 21 27 31 33 38 37 36 33 36 38 41 42 41 39 38 39 41 41 51 58 60 70 72
48 48 50 53 57 64 59 50 49 46 37 31 28 28 28 28 27 27 25 21 15 17 24 29 36 38 35 33 27 28 33 33 33 34 34 34 41 45 48 56 61 62 69
46 47 50 55 55 52 49 49 42 34 23 22 21 23 23 23 22 19 17 20 10 10 10 14 17 22 25 24 27 29 30 33 33 30 31 33 35 43 51 51 59 62 65
47 46 48 50 45 45 47 42 30 19 18 18 17 18 18 15 14 12 9 10 8 6 6 10 14 17 20 24 24 25 27 30 33 30 30 31 28 32 39 44 46 52 52
43 42 45 43 40 40 40 32 20 18 18 15 14 16 17 14 9 9 4 2 2 5 7 8 9 13 15 16 21 23 25 27 28 28 29 32 29 26 34 38 43 45 46
40 42 39 34 37 32 31 23 15 15 14 15 15 17 17 15 13 11 12 7 6 6 2 1 4 6 8 11 13 14 13 18 20 23 27 28 30 31 32 35 40 45 46
39 36 33 35 28 25 24 20 14 16 16 16 16 16 16 15 14 13 9 7 7 7 6 6 6 7 8 8 9 10 10 12 15 19 21 24 25 27 31 35 40 42 44
37 33 33 28 25 23 21 18 16 14 14 16 17 16 16 15 15 14 11 11 10 10 10 10 11 11 10 9 10 11 11 14 16 18 20 22 27 28 28 31 33 36 37
34 31 27 25 24 22 18 16 15 15 16 15 14 12 11 13 14 13 14 15 15 15 15 16 16 15 15 14 16 17 20 21 22 24 26 28 29 31 35 37 37 38 40
Wind_Direction
277 277 277 276 277 278 279 281 284 286 287 288 287 287 286 284 282 283 284 284 285 285 285 283 282 279 276 280 271 296 271 266 254 242 242 241 239 235 232 232 230 232 230
278 279 280 280 281 281 281 282 283 284 285 286 288 288 288 288 287 286 284 282 280 281 280 278 279 274 273 270 275 270 295 296 267 252 240 236 237 237 232 231 235 232 233
276 278 278 279 280 281 282 281 281 282 282 282 283 284 286 287 288 287 286 283 281 277 276 275 272 270 275 283 283 281 280 280 281 279 250 239 235 234 239 242 235 236 236
272 273 275 276 276 276 276 277 278 279 281 282 282 282 283 283 283 281 282 283 281 277 273 270 269 269 270 270 270 273 273 275 277 276 267 238 232 239 245 247 251 245 242
273 273 274 275 276 277 278 280 282 283 284 285 285 284 283 284 284 284 280 275 275 276 274 271 266 265 267 268 267 269 269 270 277 280 249 248 239 262 251 243 248 251 248
272 273 275 277 281 284 286 287 287 286 285 285 283 284 287 286 285 284 283 284 279 271 272 269 266 263 262 265 265 265 265 269 274 278 273 278 262 278 269 242 242 245 250
273 274 277 279 282 285 286 285 284 284 284 279 279 280 280 283 285 287 284 282 283 276 269 269 266 261 259 259 260 261 262 263 266 265 266 260 253 265 272 263 265 255 245
274 275 277 280 283 284 285 285 286 286 284 282 281 279 281 287 289 287 287 289 280 271 264 265 267 263 256 256 256 256 257 258 259 262 260 260 255 261 267 272 252 266 261
275 277 279 281 284 286 288 288 288 287 287 289 290 290 290 292 287 283 283 280 275 269 267 269 268 265 257 255 252 252 254 255 255 256 257 259 256 252 253 254 251 250 261
276 278 280 283 285 288 290 290 290 290 291 292 295 294 293 290 281 276 275 272 272 271 267 266 266 265 263 260 252 249 250 251 252 250 252 250 251 250 249 250 250 254 242
277 279 281 284 286 287 289 291 292 292 296 297 297 294 289 281 275 272 268 268 268 268 268 265 263 263 261 259 256 254 251 249 251 249 248 248 249 249 245 248 247 247 243
281 282 283 283 285 288 291 293 295 297 299 298 297 290 284 282 278 274 269 265 269 266 263 262 261 260 258 259 256 252 252 252 251 252 251 250 246 247 245 245 245 239 242
282 282 282 285 289 292 297 300 302 301 299 296 292 290 283 275 272 269 270 271 269 265 256 257 259 259 258 252 251 250 248 251 252 253 253 253 250 245 247 242 243 243 239
283 285 290 292 295 302 303 303 303 301 300 298 293 284 276 278 275 273 277 276 273 267 257 252 253 255 258 250 243 247 245 246 249 251 253 252 253 249 245 245 241 243 243
294 299 301 303 305 306 306 306 304 304 304 300 299 288 283 278 276 277 276 279 271 264 256 253 254 254 254 253 244 241 246 245 240 241 243 247 248 244 247 247 245 242 243
301 306 307 308 306 307 307 304 307 308 304 300 297 296 285 278 276 277 282 278 270 262 258 252 252 246 246 247 243 244 242 244 241 236 236 240 242 242 238 240 244 242 241
303 309 309 308 309 309 307 308 309 304 301 298 296 291 287 283 277 278 285 283 271 253 246 246 237 236 243 238 237 245 247 243 236 233 233 237 240 241 241 238 237 239 238
304 308 309 310 310 310 309 309 306 302 300 296 292 290 289 285 285 288 283 283 274 246 241 237 225 228 229 241 244 240 238 237 239 239 241 243 243 247 245 241 240 241 240
303 305 308 308 308 307 310 306 304 304 300 293 290 289 289 291 295 284 269 260 263 249 234 229 221 226 234 237 231 235 239 240 240 247 248 244 246 245 247 244 243 243 247
303 304 306 305 310 311 307 305 310 304 293 290 293 293 294 295 294 277 262 240 231 236 208 198 196 203 210 218 230 239 239 240 242 244 241 247 257 251 243 243 244 246 249
299 300 304 308 311 308 304 312 310 293 294 292 291 295 301 297 301 274 248 235 202 202 199 206 209 218 228 232 234 242 243 242 245 253 255 259 264 253 242 243 244 248 255
301 305 309 308 307 303 305 317 300 296 289 282 288 298 304 312 319 316 328 336 268 205 199 201 209 223 234 239 239 242 244 248 250 256 258 262 266 259 247 240 243 248 251
301 306 308 305 303 300 306 308 300 287 275 274 283 287 293 301 309 316 320 340 345 352 355 248 214 214 223 233 240 249 258 253 256 261 262 263 263 262 260 259 258 255 249
298 303 299 304 293 299 303 306 302 290 288 287 286 289 284 285 290 295 291 286 278 268 267 265 267 262 255 254 247 249 256 260 263 265 263 262 256 260 260 260 262 262 262
300 295 298 291 285 287 292 293 290 282 287 288 290 286 286 284 278 278 274 265 268 273 271 264 258 252 254 253 251 251 253 253 257 261 262 270 276 271 265 263 261 259 259
292 290 289 280 280 282 281 284 283 286 287 287 289 300 293 279 280 274 262 260 264 265 267 270 268 261 255 258 264 267 268 270 271 271 272 270 267 272 278 275 273 271 267